Location: Christian Reformed Church
(43.0975°N, 93.8113°W)
Time: 04:51:52
(UTC+00:00)

Meteor 1-25 Rocket - Pass Details

Date: 13 December 2025
Orbit: 838 x 888 km, 81.2° (Epoch: 13 January)

Event Time Altitude Azimuth Distance (km) Brightness Sun altitude
Rises 23:04:56 0° 354° (N) 3,499 7.2 -4.7°
Reaches altitude 10° 23:07:29 10° 359° (N) 2,551 6.5 -5.1°
Maximum altitude 23:13:09 53° 76° (ENE) 1,072 4.4 -6.0°
Drops below altitude 10° 23:18:42 10° 152° (SSE) 2,506 6.7 -6.9°
Sets 23:21:11 0° 157° (SSE) 3,431 7.4 -7.4°
